Theta_e
301 301 302 302 302 302 303 302 301 301 300 300 300 299 296 295 295 295 297 303 311 310 307 309 308 309 310 309 307 307 309 312 312 312 311 311 311 309 309 310 309 310 311 313 312
301 302 301 301 302 301 300 300 301 300 300 300 299 297 296 296 296 296 300 307 309 309 309 309 309 310 309 310 309 308 311 311 312 312 311 311 310 310 309 310 311 310 310 310 311
301 300 300 300 299 299 300 300 300 300 300 297 294 294 293 294 296 300 307 308 307 301 301 308 308 310 308 308 308 308 312 311 311 310 309 309 310 309 310 311 312 311 312 311 312
299 300 300 298 298 300 300 300 300 299 296 294 294 293 293 297 296 300 308 309 298 297 298 300 305 307 310 310 307 308 308 308 310 310 307 308 308 309 309 311 310 311 310 315 315
299 299 298 298 299 299 299 299 299 298 295 294 293 292 297 298 297 295 294 295 295 296 298 298 298 304 307 309 308 309 307 307 308 307 308 308 308 308 309 309 309 309 308 310 316
299 298 298 298 299 298 298 298 299 297 293 293 292 293 297 297 295 294 294 294 294 297 298 298 299 299 302 305 308 308 308 309 308 308 307 308 309 308 309 308 307 308 308 309 314
298 298 297 296 298 298 298 298 298 293 292 292 292 296 296 295 293 294 295 298 299 298 296 296 295 297 300 302 302 306 308 309 309 309 310 308 309 309 309 309 308 308 308 309 310
299 298 297 297 296 297 297 297 293 292 292 292 292 294 293 292 294 298 298 296 295 295 295 296 297 296 297 298 299 303 305 307 306 308 309 309 310 308 308 308 309 307 309 309 308
297 297 297 297 296 297 297 294 292 292 293 291 292 292 293 293 296 294 293 293 293 293 294 294 294 295 296 299 300 301 301 304 306 306 307 309 310 308 308 308 309 309 308 309 309
296 296 297 297 297 297 296 292 292 292 292 292 291 292 293 292 293 293 293 293 294 294 295 296 295 297 296 297 299 299 300 299 299 302 305 306 308 308 307 308 308 308 309 308 308
296 296 296 297 297 296 293 292 293 293 292 292 292 293 292 293 293 293 293 293 294 295 296 295 295 296 295 296 297 297 299 300 302 301 301 304 306 306 307 308 309 309 309 309 309
296 296 296 296 296 294 292 292 293 292 293 292 292 292 292 293 293 293 292 293 294 295 295 296 296 295 295 295 295 295 296 297 298 301 303 304 304 305 306 307 307 307 308 309 309
295 295 295 295 294 293 292 291 293 293 293 292 291 292 293 293 292 291 292 292 294 294 295 296 296 295 295 295 295 296 297 296 297 298 301 305 306 306 306 306 306 306 307 307 308
296 295 295 295 294 292 292 292 292 293 292 292 291 293 293 291 292 292 292 293 294 295 295 296 296 296 296 296 295 295 296 296 296 297 300 301 306 306 306 306 306 307 307 307 308
294 294 293 294 292 292 291 292 291 291 291 290 291 290 291 291 291 293 292 293 294 295 295 297 296 295 296 296 295 296 296 296 297 298 298 300 303 303 306 306 306 307 306 307 307
294 293 293 293 292 291 292 292 291 292 290 290 291 291 291 292 292 293 293 293 294 295 295 296 295 296 297 296 296 296 297 298 299 299 300 298 300 303 306 306 306 306 306 306 306
294 293 293 292 292 291 292 291 292 290 289 290 291 291 291 292 294 294 294 293 295 296 297 297 297 296 297 297 297 297 299 299 299 299 298 297 298 301 304 306 306 306 306 305 306
293 293 292 292 292 291 292 292 290 286 289 291 291 291 291 292 293 293 294 295 295 297 297 295 295 297 299 298 300 300 299 299 297 298 298 297 298 301 302 304 305 305 305 305 304
293 293 293 292 291 291 292 291 291 289 291 291 291 290 290 291 292 293 293 293 296 297 295 295 294 295 296 297 297 300 300 299 298 298 302 299 298 298 300 301 302 304 303 302 301
293 293 292 292 292 291 291 291 289 290 291 291 290 290 290 291 292 292 293 295 296 296 295 294 294 295 298 298 299 300 299 300 299 299 299 304 305 305 297 295 296 297 298 298 297
293 292 292 292 291 290 291 290 289 290 291 290 290 290 290 291 291 291 292 294 296 294 294 294 294 295 297 297 297 299 301 301 300 300 301 302 304 295 294 292 292 295 294 293 293
293 293 292 291 292 284 291 289 290 291 290 290 290 291 291 291 291 291 292 292 293 293 294 293 295 296 296 296 297 296 301 299 301 299 301 303 301 293 292 291 292 292 294 292 291
292 291 291 291 292 291 289 289 289 290 290 288 290 290 290 290 291 291 291 292 291 293 293 293 296 295 295 297 298 295 295 294 296 301 302 303 302 293 291 290 289 290 289 291 291
292 292 290 290 289 290 290 290 289 289 289 289 290 290 290 289 290 291 291 291 291 292 292 295 295 294 294 294 295 295 293 296 296 304 303 299 298 292 291 289 288 287 287 288 288
291 291 290 291 291 290 290 289 289 288 288 289 290 289 289 290 290 290 291 292 292 292 293 294 294 293 293 294 296 294 293 292 294 295 299 295 293 291 290 288 287 286 286 286 286
292 291 289 290 289 290 289 289 289 290 290 290 290 290 290 291 291 291 292 292 292 293 293 292 293 292 293 295 296 294 292 291 290 291 293 294 293 290 289 288 287 286 285 285 284
292 292 291 290 290 289 289 289 289 290 290 290 291 291 291 291 291 291 291 291 292 293 292 292 293 293 294 296 296 295 293 291 290 288 290 290 289 288 288 289 287 285 285 284 283
Wind_Speed
21 22 23 21 22 22 23 24 25 25 27 28 29 30 32 35 38 38 30 7 14 12 17 11 14 14 13 14 18 14 11 20 33 30 24 22 21 21 14 25 12 15 27 20 14
22 21 22 22 22 23 25 25 26 27 28 29 31 32 34 36 39 34 3 2 1 5 7 7 11 11 13 13 14 15 18 35 32 23 20 27 23 13 10 20 25 19 21 26 17
23 23 25 23 25 24 25 26 27 28 29 30 31 33 35 36 31 3 4 5 9 14 10 11 11 13 20 20 22 18 25 30 30 26 31 24 27 20 26 22 19 23 28 22 20
24 24 25 27 25 26 28 29 29 30 30 28 30 33 32 28 11 5 13 16 27 23 10 10 16 19 15 17 27 20 28 35 34 33 20 19 29 28 25 25 10 18 8 19 21
26 26 27 26 27 27 28 30 30 31 30 30 32 32 29 14 25 27 16 15 20 20 18 15 16 19 23 22 26 23 30 34 31 27 32 31 29 23 29 32 28 19 17 13 17
25 26 28 27 27 28 30 31 32 32 33 34 33 23 19 24 23 14 21 25 26 21 15 8 9 14 19 18 20 23 26 28 33 34 32 25 27 29 45 35 28 23 21 22 20
27 26 30 28 28 29 30 31 33 34 33 35 19 21 19 31 23 23 17 15 13 9 9 10 11 12 10 18 31 32 26 26 23 25 18 20 32 39 40 31 23 31 32 24 26
26 28 29 31 28 30 31 34 35 34 25 17 30 22 17 24 8 10 5 12 14 20 23 22 16 18 22 19 23 15 15 26 30 27 29 24 35 27 36 41 36 30 31 33 29
27 28 30 30 31 31 34 36 37 26 17 29 20 4 14 7 5 12 24 21 20 24 20 17 20 25 21 16 15 18 23 26 25 21 20 30 35 28 32 16 27 34 37 38 38
26 26 28 30 31 34 34 39 28 19 5 21 4 12 8 13 25 24 9 15 16 18 18 12 16 16 15 14 16 21 25 26 29 25 20 28 28 24 23 33 34 33 32 34 39
29 28 29 30 31 33 37 36 21 5 28 15 32 22 32 19 24 22 17 19 13 9 13 12 10 15 17 21 25 25 27 30 23 26 29 29 26 25 23 26 20 27 30 32 34
29 29 29 30 32 27 31 13 13 16 27 36 20 12 12 10 12 22 22 11 10 17 16 12 16 25 18 16 19 22 25 29 30 29 23 28 31 27 24 24 28 30 30 28 26
29 31 29 30 31 27 23 14 19 20 9 21 12 12 6 12 20 45 19 21 17 23 19 20 28 19 19 22 22 20 21 23 29 28 25 20 30 28 26 26 31 33 34 34 34
30 30 30 31 22 30 11 19 22 18 4 5 10 3 7 33 14 23 22 9 5 14 17 17 24 22 24 24 22 22 26 22 22 23 20 17 20 21 23 26 24 28 30 33 33
32 30 29 28 31 20 21 20 26 4 5 9 7 13 31 20 33 11 11 13 21 22 12 20 14 17 17 22 18 20 19 20 21 19 20 23 11 17 22 24 25 25 33 35 31
29 28 30 32 19 18 18 22 11 2 4 11 9 27 28 29 11 18 29 12 19 12 15 24 25 14 23 22 20 15 11 15 13 12 14 21 17 15 14 22 26 25 34 34 34
27 26 31 17 16 17 21 19 2 3 10 10 25 26 28 21 16 11 18 12 5 7 10 14 11 8 15 13 12 12 10 6 7 8 13 18 18 22 9 12 23 23 26 25 28
26 28 19 12 17 16 23 2 3 2 6 18 19 24 9 20 12 17 19 10 5 11 10 13 15 1 2 7 7 11 14 8 9 11 14 19 12 21 25 21 11 16 22 20 9
27 26 8 12 14 14 9 3 3 3 9 15 19 7 5 16 12 14 18 5 6 10 9 9 14 21 19 16 14 2 13 19 9 2 8 10 13 25 11 16 14 13 16 7 0
28 23 4 11 18 12 2 5 3 8 12 10 7 3 11 14 13 19 8 4 14 8 12 7 14 10 5 11 3 9 1 4 5 4 12 6 5 4 9 10 10 10 8 7 6
23 11 5 15 14 4 3 4 7 12 14 3 7 8 9 14 14 14 9 17 1 14 14 14 6 12 10 7 11 5 5 6 5 8 11 6 4 5 5 6 7 9 12 11 10
11 5 10 13 2 2 2 4 11 11 10 7 6 9 10 13 12 10 9 14 24 21 14 6 6 8 20 14 8 13 5 12 5 7 4 5 4 8 8 8 11 11 14 13 11
9 6 6 9 3 5 4 5 6 6 9 2 5 5 6 8 9 9 13 9 30 8 11 6 3 11 11 1 2 8 15 11 10 7 13 7 4 7 8 11 14 12 16 15 13
4 3 4 3 2 2 7 6 5 9 8 7 9 13 6 11 11 14 23 12 17 27 29 13 2 6 10 17 16 13 18 12 8 5 8 2 5 13 13 13 13 16 16 15 14
3 4 4 3 3 7 8 5 11 5 5 6 5 8 10 9 20 13 16 26 17 16 5 3 6 8 11 16 4 16 20 17 14 7 6 4 5 10 10 8 9 13 15 18 20
6 4 5 7 9 5 4 4 8 7 4 10 9 16 14 16 18 28 25 25 14 5 0 6 5 5 12 6 6 12 17 18 15 13 9 6 6 14 9 5 17 20 19 19 21
12 14 9 6 2 2 4 5 9 17 12 14 18 19 19 19 23 36 38 34 19 17 5 3 3 4 4 5 6 3 9 11 7 14 7 11 7 13 8 6 14 22 23 23 21
Wind_Direction
359 359 358 356 353 352 351 346 345 344 343 342 340 338 334 328 320 322 313 305 311 297 264 281 263 253 231 225 217 214 237 239 240 235 239 244 241 229 241 240 225 223 236 245 231
351 354 352 351 348 347 346 345 343 342 340 338 337 336 333 329 323 323 186 242 319 347 344 274 263 246 230 229 219 210 224 239 238 245 246 246 238 229 217 225 231 233 228 228 216
356 350 350 349 345 348 342 341 340 338 335 335 335 332 327 325 325 266 188 251 274 298 295 274 264 250 240 233 226 229 235 238 248 250 252 254 256 249 251 248 235 230 228 223 206
350 351 348 342 345 344 340 338 335 332 332 331 328 324 319 321 306 180 238 260 289 294 295 300 262 243 243 231 232 247 247 248 256 247 249 245 255 250 242 244 237 236 225 218 216
348 345 344 346 344 340 338 335 332 330 331 328 325 321 321 301 272 298 292 292 303 297 305 295 271 258 252 251 242 238 243 251 252 252 252 254 254 254 251 244 250 260 261 246 221
347 343 339 341 341 338 335 332 329 329 330 325 323 320 307 281 293 299 303 294 290 297 288 275 267 262 275 255 262 251 246 251 250 248 249 251 253 247 248 245 249 255 254 247 237
347 341 344 348 338 334 333 331 326 329 325 320 328 313 291 266 295 295 301 310 300 260 292 284 279 257 267 266 255 265 263 251 251 245 239 251 251 240 248 247 250 243 246 247 237
343 336 342 338 338 334 334 329 329 329 317 336 320 296 272 306 315 321 304 291 288 279 276 275 270 270 268 268 276 267 266 251 246 242 240 231 252 243 243 243 243 245 243 243 244
334 338 340 340 340 337 334 330 334 329 306 336 320 357 281 322 308 285 297 287 298 293 281 261 250 248 259 255 264 243 249 248 249 231 240 229 253 250 249 250 235 236 236 240 246
333 336 338 337 336 336 333 336 341 326 324 351 20 325 275 311 306 316 331 309 289 290 290 247 233 240 234 236 246 247 240 245 253 251 241 246 244 246 238 230 231 229 228 229 236
340 336 337 337 338 336 341 346 358 336 331 304 294 285 279 314 308 303 323 310 281 259 272 244 247 238 246 249 250 256 264 267 268 250 246 253 250 246 241 242 238 234 235 232 234
338 338 337 338 336 340 343 6 359 319 312 320 303 289 298 305 300 300 314 288 272 284 294 268 249 249 260 275 268 261 253 254 260 260 268 250 247 249 244 238 243 243 240 239 241
339 338 336 338 340 341 347 347 336 331 295 307 321 314 333 308 305 293 312 294 271 283 280 262 253 259 253 263 269 256 250 251 249 255 254 281 257 248 240 243 245 245 246 247 244
336 337 339 339 346 337 343 338 334 333 294 285 340 326 320 319 301 311 308 291 248 267 273 258 267 258 259 259 254 256 245 251 260 253 251 244 265 247 234 230 234 236 235 240 242
335 337 340 339 331 339 331 330 330 347 301 343 317 319 317 317 298 308 323 287 279 271 256 262 267 270 258 255 250 245 259 257 252 253 255 239 270 274 240 219 222 234 237 236 235
336 342 338 335 339 338 333 328 334 274 288 330 314 324 325 332 319 297 321 303 276 283 259 259 267 275 255 261 250 250 243 245 263 247 242 238 229 251 230 217 220 224 229 231 237
337 342 334 338 339 337 339 335 304 13 343 329 324 326 320 319 326 325 332 321 313 311 333 324 271 244 239 267 239 230 216 233 224 220 249 239 224 239 263 265 221 227 237 238 237
331 340 336 344 339 335 336 332 356 168 282 313 320 315 311 338 333 332 332 324 332 316 308 339 324 293 79 245 282 217 208 220 228 229 256 227 231 229 225 243 251 238 231 253 274
335 341 327 335 333 332 341 8 319 303 315 322 323 312 297 331 339 329 327 295 329 16 3 325 297 303 286 265 257 250 213 225 261 269 274 239 223 236 280 264 269 255 258 259 181
339 337 308 341 340 332 58 321 273 299 296 320 315 340 313 326 328 342 319 272 332 5 355 309 295 304 319 307 357 229 147 167 198 233 243 246 215 99 12 2 16 26 31 5 343
342 335 306 336 340 20 13 259 288 313 313 281 290 286 281 315 327 318 287 302 295 334 336 305 248 290 307 343 308 353 248 232 258 227 218 233 88 10 2 353 339 27 19 5 358
347 314 312 332 333 45 307 283 297 304 310 281 274 265 269 301 300 298 261 295 307 330 328 311 293 291 301 298 228 345 308 226 236 224 230 298 76 6 17 16 20 13 12 13 5
321 272 294 326 321 336 285 278 265 289 311 272 266 254 279 296 308 260 290 283 310 309 324 313 281 319 325 209 294 333 330 305 286 260 234 239 111 25 21 28 21 13 3 2 5
322 304 282 289 241 278 327 303 294 285 275 250 270 288 297 286 258 277 286 307 313 306 304 300 296 254 284 290 308 334 350 328 233 191 171 38 117 14 14 20 11 5 4 4 4
262 243 243 282 287 286 302 274 297 310 240 274 259 238 292 292 302 269 284 299 309 303 306 294 282 280 274 289 286 29 6 15 49 26 48 68 76 9 1 13 6 7 9 11 9
252 225 227 268 279 275 277 243 277 296 265 293 259 281 296 289 281 295 302 305 312 311 18 302 272 305 299 239 51 38 17 23 26 14 40 31 62 3 354 349 16 16 14 13 7
274 252 229 233 208 231 243 247 278 305 292 267 289 301 297 290 296 290 285 283 275 285 310 254 268 316 282 329 300 352 4 41 44 31 345 34 333 334 350 30 22 10 9 6 358